When you browse on this site, cookies collect data to enhance your experience and personalize the content and advertising you see.
Visit our Privacy Policy to learn more. By continuing to use the site, you agree to this use of cookies and data.

Hourly Weather Port-au-Princ

Today, 3 July, Friday

Time Temperature Precipitation Wind Pressure Humidity
00:00 +26°C° 0 mm 1 mps 736 mmHg 85%
01:00 +26°C° 0 mm 1 mps 735 mmHg 85%
02:00 +26°C° 0 mm 1 mps 735 mmHg 86%
03:00 +26°C° 0 mm 1 mps 735 mmHg 86%
04:00 +25°C° 0 mm 1 mps 735 mmHg 86%
05:00 +26°C° 0 mm 1 mps 735 mmHg 84%
06:00 +27°C° 0 mm 1 mps 735 mmHg 81%
07:00 +27°C° 0 mm 1 mps 736 mmHg 79%
08:00 +29°C° 0 mm 1 mps 736 mmHg 73%
09:00 +30°C° 0 mm 1 mps 736 mmHg 68%
10:00 +31°C° 0 mm 1 mps 736 mmHg 62%
11:00 +32°C° 0 mm 2 mps 736 mmHg 60%
12:00 +34°C° 0 mm 2 mps 736 mmHg 58%
13:00 +34°C° 0 mm 2 mps 736 mmHg 56%
14:00 +34°C° 0.2 mm 2 mps 735 mmHg 58%
15:00 +32°C° 0.2 mm 2 mps 735 mmHg 60%
16:00 +32°C° 0.2 mm 2 mps 735 mmHg 62%
17:00 +31°C° 0.2 mm 1 mps 735 mmHg 68%
18:00 +29°C° 0.2 mm 1 mps 735 mmHg 75%
19:00 +28°C° 0.2 mm 1 mps 735 mmHg 81%
20:00 +28°C° 0.1 mm 1 mps 735 mmHg 82%
21:00 +28°C° 0.1 mm 1 mps 736 mmHg 83%
22:00 +27°C° 0.1 mm 1 mps 736 mmHg 84%
23:00 +27°C° 0 mm 1 mps 736 mmHg 83%

Tomorrow, 4 July, Saturday

Time Temperature Precipitation Wind Pressure Humidity
00:00 +26°C° 0 mm 1 mps 735 mmHg 83%
01:00 +26°C° 0 mm 1 mps 735 mmHg 83%
02:00 +26°C° 0 mm 1 mps 735 mmHg 84%
03:00 +26°C° 0 mm 1 mps 735 mmHg 85%
04:00 +25°C° 0 mm 1 mps 735 mmHg 86%
05:00 +26°C° 0 mm 1 mps 735 mmHg 84%
06:00 +27°C° 0 mm 1 mps 736 mmHg 82%
07:00 +27°C° 0 mm 1 mps 736 mmHg 80%
08:00 +29°C° 0 mm 1 mps 736 mmHg 74%
09:00 +30°C° 0 mm 2 mps 736 mmHg 68%
10:00 +31°C° 0 mm 2 mps 736 mmHg 62%
11:00 +32°C° 0 mm 2 mps 736 mmHg 59%
12:00 +34°C° 0 mm 2 mps 736 mmHg 55%
13:00 +34°C° 0 mm 2 mps 736 mmHg 52%
14:00 +34°C° 0.2 mm 2 mps 735 mmHg 56%
15:00 +32°C° 0.2 mm 2 mps 735 mmHg 60%
16:00 +33°C° 0.2 mm 3 mps 735 mmHg 65%
17:00 +30°C° 0.9 mm 2 mps 735 mmHg 71%
18:00 +29°C° 0.9 mm 1 mps 735 mmHg 78%
19:00 +28°C° 0.9 mm 1 mps 735 mmHg 85%
20:00 +28°C° 0.7 mm 1 mps 736 mmHg 86%
21:00 +27°C° 0.7 mm 1 mps 736 mmHg 86%
22:00 +25°C° 0.7 mm 0 mps 736 mmHg 87%
23:00 +27°C° 0 mm 1 mps 736 mmHg 87%

Day after tomorrow, 5 July, Sunday

Time Temperature Precipitation Wind Pressure Humidity
00:00 +26°C° 0 mm 1 mps 736 mmHg 87%
01:00 +26°C° 0 mm 1 mps 736 mmHg 88%
02:00 +26°C° 0 mm 1 mps 735 mmHg 88%
03:00 +26°C° 0 mm 1 mps 735 mmHg 88%
04:00 +26°C° 0 mm 1 mps 735 mmHg 88%
05:00 +26°C° 0 mm 1 mps 735 mmHg 85%
06:00 +27°C° 0 mm 1 mps 736 mmHg 83%
07:00 +27°C° 0 mm 1 mps 736 mmHg 81%
08:00 +29°C° 0 mm 1 mps 736 mmHg 76%
09:00 +30°C° 0 mm 1 mps 737 mmHg 71%
10:00 +31°C° 0 mm 1 mps 737 mmHg 66%
11:00 +31°C° 0.3 mm 1 mps 736 mmHg 63%
12:00 +32°C° 0.3 mm 1 mps 736 mmHg 61%
13:00 +32°C° 0.3 mm 2 mps 736 mmHg 59%
14:00 +32°C° 0.8 mm 2 mps 735 mmHg 62%
15:00 +31°C° 0.8 mm 2 mps 735 mmHg 66%
16:00 +31°C° 0.8 mm 2 mps 735 mmHg 69%
17:00 +30°C° 1.4 mm 2 mps 735 mmHg 74%
18:00 +29°C° 1.4 mm 1 mps 735 mmHg 79%
19:00 +28°C° 1.4 mm 1 mps 735 mmHg 83%
20:00 +27°C° 0.4 mm 1 mps 736 mmHg 84%
21:00 +27°C° 0.4 mm 1 mps 736 mmHg 85%
22:00 +27°C° 0.4 mm 1 mps 736 mmHg 86%
23:00 +26°C° 0 mm 1 mps 736 mmHg 86%

6 July, Monday

Time Temperature Precipitation Wind Pressure Humidity
00:00 +26°C° 0 mm 1 mps 736 mmHg 87%
01:00 +26°C° 0 mm 1 mps 735 mmHg 87%
02:00 +26°C° 0 mm 1 mps 735 mmHg 88%
03:00 +25°C° 0 mm 1 mps 735 mmHg 88%
04:00 +25°C° 0 mm 1 mps 735 mmHg 89%
05:00 +26°C° 0 mm 1 mps 735 mmHg 86%
06:00 +26°C° 0 mm 1 mps 736 mmHg 84%
07:00 +27°C° 0 mm 1 mps 736 mmHg 81%
08:00 +28°C° 0.1 mm 1 mps 737 mmHg 76%
09:00 +29°C° 0.1 mm 2 mps 737 mmHg 70%
10:00 +31°C° 0.1 mm 2 mps 737 mmHg 64%
11:00 +31°C° 0.8 mm 2 mps 737 mmHg 63%
12:00 +32°C° 0.8 mm 2 mps 737 mmHg 61%
13:00 +32°C° 0.8 mm 2 mps 736 mmHg 60%
14:00 +31°C° 0.4 mm 2 mps 736 mmHg 63%
15:00 +31°C° 0.4 mm 2 mps 736 mmHg 66%
16:00 +30°C° 0.4 mm 3 mps 735 mmHg 70%
17:00 +30°C° 0.2 mm 2 mps 736 mmHg 74%
18:00 +29°C° 0.2 mm 1 mps 736 mmHg 79%
19:00 +28°C° 0.2 mm 1 mps 736 mmHg 84%
20:00 +27°C° 0.1 mm 1 mps 736 mmHg 83%
21:00 +27°C° 0.1 mm 1 mps 737 mmHg 83%
22:00 +27°C° 0.1 mm 1 mps 737 mmHg 82%
23:00 +26°C° 0 mm 1 mps 737 mmHg 81%

7 July, Tuesday

Time Temperature Precipitation Wind Pressure Humidity
00:00 +26°C° 0 mm 1 mps 736 mmHg 79%
01:00 +25°C° 0 mm 1 mps 736 mmHg 77%
02:00 +25°C° 0 mm 1 mps 736 mmHg 74%
03:00 +25°C° 0 mm 1 mps 736 mmHg 71%
04:00 +25°C° 0 mm 1 mps 736 mmHg 68%
05:00 +26°C° 0 mm 1 mps 736 mmHg 68%
06:00 +26°C° 0 mm 2 mps 736 mmHg 67%
07:00 +27°C° 0 mm 2 mps 736 mmHg 66%
08:00 +29°C° 0.3 mm 2 mps 737 mmHg 63%
09:00 +30°C° 0.3 mm 2 mps 737 mmHg 60%
10:00 +31°C° 0.3 mm 2 mps 737 mmHg 57%
11:00 +32°C° 0 mm 2 mps 737 mmHg 55%
12:00 +32°C° 0 mm 2 mps 737 mmHg 54%
13:00 +34°C° 0 mm 2 mps 736 mmHg 52%
14:00 +34°C° 0 mm 2 mps 736 mmHg 54%
15:00 +32°C° 0 mm 2 mps 736 mmHg 56%
16:00 +32°C° 0 mm 2 mps 735 mmHg 58%
17:00 +31°C° 0 mm 1 mps 735 mmHg 65%
18:00 +29°C° 0 mm 1 mps 735 mmHg 72%
19:00 +28°C° 0 mm 1 mps 736 mmHg 79%
20:00 +28°C° 0 mm 1 mps 736 mmHg 80%
21:00 +27°C° 0 mm 1 mps 736 mmHg 81%
22:00 +27°C° 0 mm 1 mps 736 mmHg 82%
23:00 +27°C° 0 mm 1 mps 736 mmHg 83%

8 July, Wednesday

Time Temperature Precipitation Wind Pressure Humidity
00:00 +26°C° 0 mm 1 mps 736 mmHg 83%
01:00 +26°C° 0 mm 1 mps 735 mmHg 84%
02:00 +26°C° 0 mm 1 mps 735 mmHg 84%
03:00 +26°C° 0 mm 1 mps 735 mmHg 84%
04:00 +26°C° 0 mm 1 mps 735 mmHg 84%
05:00 +26°C° 0 mm 1 mps 736 mmHg 82%
06:00 +27°C° 0 mm 1 mps 736 mmHg 81%
07:00 +27°C° 0 mm 1 mps 736 mmHg 79%
08:00 +29°C° 0 mm 2 mps 736 mmHg 74%
09:00 +30°C° 0 mm 2 mps 737 mmHg 70%
10:00 +31°C° 0 mm 2 mps 737 mmHg 65%
11:00 +31°C° 0.4 mm 2 mps 737 mmHg 64%
12:00 +32°C° 0.4 mm 2 mps 736 mmHg 64%
13:00 +32°C° 0.4 mm 2 mps 736 mmHg 63%
14:00 +32°C° 1.7 mm 2 mps 736 mmHg 66%
15:00 +31°C° 1.7 mm 2 mps 735 mmHg 69%
16:00 +30°C° 1.7 mm 2 mps 735 mmHg 71%
17:00 +29°C° 2.1 mm 2 mps 735 mmHg 76%
18:00 +28°C° 2.1 mm 2 mps 735 mmHg 80%
19:00 +27°C° 2.1 mm 1 mps 735 mmHg 84%
20:00 +27°C° 0.3 mm 1 mps 736 mmHg 85%
21:00 +27°C° 0.3 mm 1 mps 736 mmHg 86%
22:00 +27°C° 0.3 mm 1 mps 737 mmHg 87%
23:00 +27°C° 0 mm 1 mps 736 mmHg 87%
Show more